[[{"header":{"parameterUnit":"m.s-1","parameterCategory":1,"la1":30.2991,"la2":30.254,"lo1":-89.0895,"lo2":-89.0444,"dy":0.0017,"dx":0.0017,"nx":28,"ny":28,"refTime":"2023-03-22T21:00:00:Z","depth":0,"parameterNumber":2,"parameterNumberName":"U-component_of_WINDS"},"data":[0,0,0,0,0,0,0,0,0,0,0,0,0,0,0,0,0,0,0,0,0,0,0,0,0,0,0,0,0,0,0,0,0,0,0,0,0,0,0,0,0,0,0,0,0,0,0,0,0,0,0,0,0,0,0,0,0,0,-2.4083,-2.4083,0,-2.4078,-2.4078,-2.4077,-2.4034,-2.4033,-2.4032,-2.4031,-2.4026,-2.4027,-2.4027,0,0,0,0,0,0,0,0,0,0,0,0,0,-2.4059,-2.4059,-2.4084,-2.4083,-2.4083,-2.4078,-2.4077,-2.4077,-2.4035,-2.4033,-2.4032,-2.4031,-2.4025,-2.4026,-2.4027,0,0,0,0,0,0,0,0,0,0,0,0,0,-2.4063,-2.4059,-2.4084,-2.4061,-2.4059,-2.4078,-2.4077,-2.4077,-2.4035,-2.4033,-2.4032,-2.403,-2.4025,-2.4026,-2.4028,-2.4067,0,0,-2.4031,-2.4032,0,0,0,0,0,0,0,0,-2.4063,-2.4064,-2.4065,-2.4063,-2.4061,-2.4055,-2.4067,-2.4074,-2.4035,-2.4044,-2.4031,-2.4029,-2.4037,-2.4037,-2.4039,-2.4067,-2.4066,-2.4032,-2.4032,-2.4033,-2.4033,0,0,0,0,0,0,0,-2.4062,-2.4064,-2.4081,-2.4065,-2.4062,-2.4052,-2.4051,-2.4068,-2.4049,-2.4043,-2.404,-2.404,-2.4035,-2.4038,-2.4039,-2.4066,-2.4031,-2.4033,-2.4033,-2.4034,-2.4125,-2.4127,0,0,0,0,0,0,-2.4065,-2.4064,-2.4081,-2.4081,-2.4058,-2.4054,-2.4052,-2.4058,-2.4049,-2.4046,-2.4041,-2.4038,-2.4037,-2.4038,-2.4039,-2.4083,-2.4033,-2.4034,-2.4035,-2.4124,-2.4126,-2.4128,0,0,0,0,0,0,-2.4065,-2.4067,-2.4082,-2.4072,-2.4073,-2.4056,-2.4063,-2.4059,-2.4062,-2.4048,-2.4044,-2.4048,-2.4036,-2.4037,-2.406,-2.4082,-2.4035,-2.4036,-2.4122,-2.4124,-2.4127,-2.4173,0,0,0,0,0,0,-2.4064,-2.4067,-2.4082,-2.4072,-2.4073,-2.4103,-2.4064,-2.406,-2.4064,-2.406,-2.4053,-2.405,-2.4035,-2.4058,-2.4061,-2.4083,-2.4037,-2.412,-2.4123,-2.4126,-2.4169,-2.4177,-2.4183,0,0,0,0,0,-2.4063,-2.4095,-2.4083,-2.4085,-2.4091,-2.4104,-2.4105,-2.4086,-2.4066,-2.4081,-2.4072,-2.405,-2.408,-2.4061,-2.4064,-2.4087,-2.4118,-2.4122,-2.4126,-2.4166,-2.4175,-2.4183,0,0,0,0,0,0,-2.4108,-2.4093,-2.4079,-2.4109,-2.4108,-2.4097,-2.4114,-2.4097,-2.4102,-2.4097,-2.4075,-2.4074,-2.41,-2.4096,-2.4075,-2.4124,-2.4095,-2.41,-2.4125,-2.4134,-2.4141,-2.414,-2.4038,0,0,0,0,0,-2.4121,-2.4133,-2.412,-2.4147,-2.4148,-2.4132,-2.4137,-2.4123,-2.4121,-2.412,-2.4113,-2.4112,-2.4121,-2.4128,-2.4135,-2.417,-2.4167,-2.4187,-2.4194,-2.4199,-2.4203,-2.422,-2.4228,-2.414,-2.414,-2.414,0,0,-2.4148,-2.4142,-2.4151,-2.4156,-2.4154,-2.4166,-2.4131,-2.4146,-2.4155,-2.4123,-2.4143,-2.4139,-2.4136,-2.4165,-2.4177,-2.4162,-2.4227,-2.4204,-2.4209,-2.4209,-2.4225,-2.4233,-2.424,-2.4142,-2.4142,-2.4142,0,0,-2.4204,-2.4201,-2.4223,-2.4222,-2.4219,-2.4208,-2.4213,-2.4205,-2.42,-2.4221,-2.4197,-2.4208,-2.4224,-2.4223,-2.4225,-2.4282,-2.4262,-2.4285,-2.4321,-2.4337,-2.4344,-2.435,-2.4369,-2.4377,-2.4289,-2.429,-2.429,0,-2.4238,-2.4256,-2.4237,-2.4253,-2.4256,-2.4227,-2.4249,-2.4249,-2.4249,-2.4252,-2.4235,-2.4255,-2.4252,-2.4279,-2.4293,-2.4296,-2.4301,-2.4285,-2.4345,-2.4351,-2.4356,-2.4374,-2.4381,-2.4292,-2.4292,-2.4292,-2.4291,0,-2.4298,-2.4311,-2.4329,-2.4329,-2.4334,-2.4354,-2.4337,-2.4345,-2.4331,-2.4322,-2.4344,-2.4339,-2.4345,-2.4351,-2.4338,-2.4377,-2.4368,-2.4349,-2.4319,-2.4367,-2.4384,-2.4391,-2.4296,-2.4295,-2.4294,-2.4294,0,0,-2.4379,-2.4369,-2.4376,-2.4376,-2.4371,-2.4381,-2.4399,-2.4405,-2.4411,-2.4413,-2.4427,-2.4442,-2.4424,-2.4427,-2.4413,-2.4428,-2.4472,-2.4407,-2.4407,-2.4418,-2.4514,-2.4527,-2.4535,-2.446,-2.4461,-2.4462,-2.4514,0,-2.4432,-2.4461,-2.4445,-2.4477,-2.4489,-2.4462,-2.4478,-2.4477,-2.447,-2.4479,-2.4471,-2.4481,-2.4457,-2.4458,-2.4472,-2.4464,-2.4491,-2.446,-2.4472,-2.4473,-2.4472,-2.4544,-2.4558,-2.4606,-2.452,-2.4521,-2.4522,0,-2.4496,-2.45,-2.4533,-2.4526,-2.453,-2.4545,-2.4548,-2.4558,-2.4556,-2.455,-2.4553,-2.4536,-2.4553,-2.4526,-2.4549,-2.4529,-2.4533,-2.453,-2.4532,-2.453,-2.4499,-2.4543,-2.4621,-2.4628,-2.4532,-2.4531,-2.4531,0,-2.455,-2.4564,-2.4585,-2.4586,-2.4579,-2.459,-2.4587,-2.4584,-2.4589,-2.4593,-2.4595,-2.4601,-2.4604,-2.461,-2.4595,-2.4576,-2.462,-2.4592,-2.4615,-2.4615,-2.4623,-2.4623,-2.4702,-2.463,-2.463,-2.463,-2.4629,0,-2.4609,-2.463,-2.4609,-2.4622,-2.4645,-2.4627,-2.465,-2.4645,-2.4643,-2.4654,-2.4633,-2.4644,-2.4625,-2.4635,-2.4624,-2.4645,-2.4647,-2.4642,-2.4638,-2.4642,-2.4643,-2.4643,-2.4639,-2.4631,-2.4631,-2.4631,-2.463,0,-2.4673,-2.466,-2.4681,-2.4673,-2.4671,-2.4688,-2.4681,-2.4693,-2.4685,-2.47,-2.4702,-2.4689,-2.4699,-2.4686,-2.4695,-2.4688,-2.4715,-2.4708,-2.4716,-2.4713,-2.4736,-2.4733,-2.4817,-2.4826,-2.475,-2.4751,-2.4751,0,-2.471,-2.4725,-2.4719,-2.4725,-2.4723,-2.4734,-2.4738,-2.4721,-2.4727,-2.4727,-2.4739,-2.4747,-2.4753,-2.477,-2.4762,-2.4769,-2.476,-2.4789,-2.4761,-2.4765,-2.4758,-2.4757,-2.4758,-2.4794,-2.4795,-2.4796,-2.4796,0,-2.4777,-2.477,-2.4777,-2.4782,-2.4788,-2.4792,-2.4793,-2.48,-2.4782,-2.479,-2.48,-2.4804,-2.4814,-2.4822,-2.4827,-2.4824,-2.4807,-2.4805,-2.4811,-2.4814,-2.4817,-2.4814,-2.4729,-2.4803,-2.4802,-2.4802,-2.4801,-2.4801,-2.4827,-2.484,-2.4837,-2.4845,-2.4845,-2.4847,-2.4858,-2.4851,-2.4859,-2.4865,-2.4855,-2.4867,-2.4866,-2.4871,-2.487,-2.488,-2.4868,-2.4876,-2.4878,-2.4879,-2.4882,-2.4818,-2.4881,-2.4881,-2.4881,-2.4881,-2.4881,0,-2.4892,-2.4889,-2.4897,-2.49,-2.4907,-2.4891,-2.4893,-2.4899,-2.491,-2.4911,-2.4917,-2.4928,-2.4937,-2.4929,-2.4936,-2.4945,-2.4938,-2.4948,-2.4946,-2.4945,-2.4894,-2.4888,-2.4954,-2.4954,-2.4954,-2.4954,-2.4954,-2.4954,-2.4926,-2.4946,-2.4939,-2.4958,-2.4955,-2.4967,-2.4969,-2.4971,-2.4971,-2.4985,-2.4991,-2.4987,-2.4984,-2.499,-2.4997,-2.4995,-2.4998,-2.501,-2.5005,-2.4956,-2.4949,-2.4942,-2.4936,-2.5011,-2.5012,-2.5055,-2.5056,-2.5056]},{"header":{"parameterUnit":"m.s-1","parameterCategory":1,"la1":30.2991,"la2":30.254,"lo1":-89.0895,"lo2":-89.0444,"dy":0.0017,"dx":0.0017,"nx":28,"ny":28,"refTime":"2023-03-22T21:00:00:Z","depth":0,"parameterNumber":3,"parameterNumberName":"V-component_of_WINDS"},"data":[0,0,0,0,0,0,0,0,0,0,0,0,0,0,0,0,0,0,0,0,0,0,0,0,0,0,0,0,0,0,0,0,0,0,0,0,0,0,0,0,0,0,0,0,0,0,0,0,0,0,0,0,0,0,0,0,0,0,1.9614,1.9614,0,1.959,1.9589,1.9589,1.9595,1.9596,1.9596,1.9597,1.9569,1.9568,1.9566,0,0,0,0,0,0,0,0,0,0,0,0,0,1.9664,1.9663,1.9614,1.9613,1.9613,1.959,1.9589,1.9589,1.9595,1.9596,1.9596,1.9597,1.9569,1.9568,1.9566,0,0,0,0,0,0,0,0,0,0,0,0,0,1.9641,1.9662,1.9614,1.9614,1.9613,1.959,1.9589,1.9589,1.9595,1.9596,1.9596,1.9597,1.957,1.9568,1.9566,1.954,0,0,1.9561,1.956,0,0,0,0,0,0,0,0,1.9642,1.9639,1.9614,1.9613,1.9613,1.9596,1.9597,1.9573,1.9595,1.9602,1.9597,1.9598,1.9577,1.9575,1.9568,1.9539,1.9538,1.956,1.9559,1.9559,1.9558,0,0,0,0,0,0,0,1.9644,1.964,1.9604,1.9613,1.9613,1.9614,1.9612,1.9592,1.9586,1.9601,1.9602,1.9599,1.9577,1.957,1.9568,1.9537,1.956,1.9559,1.9558,1.9557,1.9488,1.9487,0,0,0,0,0,0,1.9646,1.9641,1.9605,1.9603,1.963,1.9613,1.961,1.9601,1.9586,1.9584,1.9598,1.9599,1.9573,1.957,1.9567,1.9537,1.9559,1.9557,1.9556,1.9489,1.9488,1.9487,0,0,0,0,0,0,1.9647,1.9643,1.9606,1.9623,1.9618,1.9611,1.9601,1.96,1.9593,1.9584,1.9582,1.9593,1.9573,1.9569,1.9548,1.9536,1.9556,1.9554,1.949,1.9488,1.9487,1.9477,0,0,0,0,0,0,1.9648,1.9643,1.9633,1.9622,1.9617,1.9587,1.96,1.9599,1.9591,1.9592,1.9578,1.9576,1.9574,1.955,1.9546,1.9534,1.9553,1.9491,1.9489,1.9488,1.9478,1.9476,1.9473,0,0,0,0,0,1.965,1.963,1.9633,1.9628,1.9605,1.9587,1.9584,1.9582,1.959,1.958,1.9574,1.9577,1.9538,1.9548,1.9543,1.9531,1.9491,1.949,1.9488,1.9479,1.9476,1.9473,0,0,0,0,0,0,1.9638,1.9629,1.9631,1.9608,1.9598,1.9588,1.9575,1.9578,1.9565,1.9567,1.9564,1.9561,1.9539,1.9533,1.9544,1.9506,1.9516,1.9513,1.9511,1.9508,1.9506,1.9508,1.9552,0,0,0,0,0,1.9633,1.962,1.9612,1.9592,1.9587,1.9582,1.9574,1.9574,1.9563,1.9559,1.9551,1.9541,1.9526,1.9517,1.9503,1.9478,1.9475,1.9467,1.9464,1.9462,1.946,1.9448,1.9444,1.9481,1.9481,1.9481,0,0,1.9622,1.9615,1.9607,1.9589,1.9582,1.9568,1.9578,1.9563,1.9552,1.9556,1.9536,1.953,1.9518,1.9495,1.9484,1.9489,1.9449,1.946,1.9459,1.9457,1.9446,1.9442,1.9439,1.948,1.948,1.9481,0,0,1.9595,1.9588,1.9571,1.9564,1.9554,1.9551,1.9547,1.9537,1.9534,1.9514,1.9517,1.9504,1.9479,1.9471,1.9463,1.9435,1.9438,1.9431,1.9418,1.9406,1.9403,1.94,1.9391,1.9388,1.9428,1.9428,1.9428,0,1.9582,1.9562,1.9562,1.9547,1.9539,1.9544,1.9527,1.952,1.9505,1.9499,1.9505,1.9475,1.9467,1.9443,1.9437,1.943,1.9426,1.9432,1.9404,1.9401,1.9399,1.939,1.9387,1.9428,1.9428,1.9428,1.9428,0,1.9547,1.9533,1.9521,1.9508,1.9499,1.9483,1.9481,1.9472,1.9473,1.9469,1.9449,1.944,1.9426,1.942,1.942,1.9396,1.94,1.9404,1.9414,1.9394,1.9386,1.9383,1.9427,1.9427,1.9427,1.9427,0,0,1.951,1.95,1.9495,1.949,1.948,1.9469,1.9454,1.9441,1.9434,1.9423,1.9411,1.9391,1.9396,1.9387,1.9387,1.9376,1.9356,1.9382,1.9382,1.9379,1.9331,1.9328,1.9324,1.9358,1.9357,1.9357,1.9333,0,1.9483,1.9457,1.9457,1.9433,1.9421,1.9426,1.9413,1.9405,1.9402,1.9391,1.9387,1.9373,1.938,1.9376,1.9366,1.9361,1.9347,1.9363,1.9346,1.9346,1.935,1.932,1.9316,1.9293,1.9329,1.9329,1.9328,0,1.9447,1.9438,1.9413,1.9406,1.9401,1.9389,1.9379,1.9368,1.9359,1.9358,1.935,1.9351,1.9336,1.9346,1.9325,1.9336,1.933,1.9326,1.9326,1.9324,1.9336,1.9318,1.9286,1.9283,1.9323,1.9324,1.9324,0,1.9424,1.9405,1.9388,1.9384,1.9376,1.9367,1.9363,1.9356,1.9349,1.9339,1.9335,1.9323,1.9316,1.9307,1.9305,1.9313,1.9285,1.9295,1.9283,1.9283,1.9277,1.9277,1.9244,1.9272,1.9272,1.9272,1.9272,0,1.9394,1.9378,1.9378,1.9368,1.9351,1.9352,1.9336,1.9332,1.9326,1.9315,1.9318,1.9308,1.9306,1.9295,1.9294,1.9277,1.9274,1.9272,1.9272,1.9272,1.9273,1.9268,1.927,1.9271,1.9271,1.9271,1.9271,0,1.9365,1.9364,1.9347,1.9341,1.9339,1.9327,1.9322,1.9313,1.9311,1.9297,1.9294,1.929,1.9278,1.9276,1.926,1.926,1.924,1.9241,1.9243,1.9244,1.9233,1.9234,1.9195,1.9191,1.9221,1.9221,1.9221,0,1.9346,1.9334,1.9328,1.9322,1.9318,1.9307,1.9301,1.9302,1.9295,1.9286,1.9277,1.9265,1.9256,1.9236,1.9232,1.9221,1.9222,1.9209,1.922,1.9222,1.9223,1.9224,1.9223,1.9207,1.9207,1.9207,1.9206,0,1.9312,1.9313,1.9304,1.9295,1.9288,1.9281,1.9274,1.9268,1.9268,1.926,1.9248,1.9241,1.9227,1.9216,1.9205,1.9201,1.9204,1.9203,1.92,1.92,1.9202,1.9202,1.9238,1.9204,1.9204,1.9204,1.9204,1.9205,1.9288,1.9279,1.9274,1.9264,1.926,1.9254,1.9245,1.9243,1.9234,1.9223,1.9224,1.9211,1.9205,1.9191,1.9186,1.9176,1.918,1.9175,1.9174,1.9173,1.9173,1.9204,1.9174,1.9174,1.9174,1.9174,1.9174,0,1.9255,1.9253,1.9244,1.9236,1.9228,1.9233,1.9227,1.922,1.9209,1.9203,1.9195,1.9182,1.9172,1.9168,1.9157,1.915,1.9152,1.9148,1.9148,1.9148,1.9169,1.9173,1.9147,1.9147,1.9147,1.9147,1.9147,1.9147,1.9238,1.9223,1.9224,1.9208,1.9205,1.9194,1.919,1.9185,1.918,1.9166,1.9158,1.9156,1.9151,1.9141,1.9132,1.9131,1.9127,1.9123,1.9123,1.9143,1.9146,1.9148,1.9152,1.9122,1.9122,1.9102,1.9102,1.9102]}]]